[[{"header":{"parameterUnit":"m.s-1","parameterCategory":2,"la1":30.2991,"la2":30.254,"lo1":-89.0895,"lo2":-89.0444,"dy":0.0017,"dx":0.0017,"nx":28,"ny":28,"refTime":"2025-06-13T21:00:00:Z","depth":"0","parameterNumber":2,"parameterNumberName":"U-component_of_CURRENTS"},"data":[0,0,0,0,0,0,0,0,0,0,0,0,0,0,0,0,0,0,0,0,0,0,0,0,0,0,0,0,0,0,0,0,0,0,0,0,0,0,0,0,0,0,0,0,0,0,0,0,0,0,0,0,0,0,0,0,0,0,-0.2521,-0.2521,0,-0.2553,-0.2553,-0.2553,-0.2473,-0.2471,-0.2469,-0.2467,-0.2378,-0.2377,-0.2377,0,0,0,0,0,0,0,0,0,0,0,0,0,-0.2352,-0.2355,-0.252,-0.2521,-0.2522,-0.2553,-0.2553,-0.2552,-0.2473,-0.2471,-0.2468,-0.2466,-0.2378,-0.2377,-0.2377,0,0,0,0,0,0,0,0,0,0,0,0,0,-0.2403,-0.2356,-0.252,-0.2491,-0.2489,-0.2553,-0.2553,-0.2552,-0.2473,-0.247,-0.2467,-0.2465,-0.2378,-0.2377,-0.2377,-0.2431,0,0,-0.2374,-0.2374,0,0,0,0,0,0,0,0,-0.24,-0.2409,-0.2494,-0.2493,-0.2491,-0.2511,-0.2461,-0.2508,-0.2474,-0.2473,-0.2467,-0.2463,-0.2417,-0.2413,-0.2419,-0.2427,-0.2423,-0.2374,-0.2374,-0.2373,-0.2373,0,0,0,0,0,0,0,-0.2397,-0.2407,-0.2527,-0.2496,-0.2494,-0.2463,-0.2467,-0.2469,-0.2454,-0.2473,-0.2469,-0.2483,-0.2414,-0.242,-0.2416,-0.2422,-0.2374,-0.2374,-0.2373,-0.2373,-0.25,-0.2503,0,0,0,0,0,0,-0.2411,-0.2404,-0.2526,-0.2529,-0.2444,-0.2469,-0.2473,-0.2503,-0.2457,-0.245,-0.2485,-0.2479,-0.2423,-0.2417,-0.2412,-0.2478,-0.2373,-0.2373,-0.2372,-0.2496,-0.25,-0.2505,0,0,0,0,0,0,-0.2408,-0.2422,-0.2525,-0.247,-0.2482,-0.2476,-0.2509,-0.2505,-0.2508,-0.2469,-0.2457,-0.2493,-0.242,-0.2414,-0.2439,-0.2473,-0.2372,-0.2372,-0.2491,-0.2497,-0.2503,-0.2605,0,0,0,0,0,0,-0.2403,-0.2421,-0.244,-0.2472,-0.2486,-0.2589,-0.2513,-0.2508,-0.2524,-0.2516,-0.2472,-0.2461,-0.2417,-0.2441,-0.2439,-0.247,-0.2371,-0.2486,-0.2494,-0.2501,-0.2597,-0.2614,-0.2628,0,0,0,0,0,-0.2397,-0.2445,-0.2441,-0.2456,-0.2515,-0.2593,-0.2598,-0.2577,-0.2528,-0.2561,-0.2528,-0.2462,-0.2484,-0.2444,-0.244,-0.2472,-0.2483,-0.2492,-0.25,-0.259,-0.2611,-0.2628,0,0,0,0,0,0,-0.2372,-0.2443,-0.2439,-0.2502,-0.2555,-0.2582,-0.2602,-0.2593,-0.2595,-0.2571,-0.2512,-0.2503,-0.254,-0.2511,-0.2468,-0.2537,-0.2474,-0.2482,-0.2543,-0.2562,-0.2578,-0.2537,-0.237,0,0,0,0,0,-0.2383,-0.2434,-0.2499,-0.2545,-0.2576,-0.259,-0.2612,-0.2613,-0.2624,-0.2619,-0.2594,-0.2573,-0.258,-0.2571,-0.2578,-0.2615,-0.2546,-0.2638,-0.2653,-0.2666,-0.2637,-0.256,-0.2563,-0.2533,-0.2533,-0.2533,0,0,-0.2382,-0.2428,-0.2453,-0.2544,-0.2568,-0.2642,-0.2594,-0.2649,-0.2691,-0.2612,-0.2646,-0.2633,-0.2608,-0.2651,-0.2663,-0.262,-0.2657,-0.2677,-0.2688,-0.265,-0.2569,-0.2571,-0.2572,-0.2539,-0.2538,-0.2537,0,0,-0.2423,-0.2454,-0.2517,-0.2581,-0.2653,-0.2676,-0.2701,-0.2752,-0.2749,-0.2809,-0.2755,-0.2763,-0.2783,-0.276,-0.2752,-0.2864,-0.2751,-0.2876,-0.2901,-0.283,-0.2829,-0.2827,-0.2801,-0.2795,-0.287,-0.287,-0.287,0,-0.241,-0.2507,-0.2547,-0.2637,-0.2679,-0.27,-0.2775,-0.2806,-0.2854,-0.2823,-0.2837,-0.2817,-0.2831,-0.2813,-0.2877,-0.2891,-0.2834,-0.2824,-0.2841,-0.2838,-0.2834,-0.2807,-0.2799,-0.2876,-0.2875,-0.2875,-0.2874,0,-0.2511,-0.259,-0.2636,-0.2747,-0.2804,-0.2878,-0.2936,-0.2959,-0.2956,-0.2947,-0.2939,-0.2956,-0.2911,-0.2957,-0.2963,-0.2947,-0.2914,-0.2874,-0.2775,-0.2842,-0.2812,-0.2802,-0.2885,-0.2883,-0.2881,-0.2879,0,0,-0.2456,-0.2665,-0.2673,-0.2724,-0.2865,-0.29,-0.2978,-0.3005,-0.2965,-0.302,-0.2966,-0.3037,-0.2978,-0.2968,-0.2961,-0.2937,-0.2939,-0.2907,-0.2901,-0.2848,-0.2792,-0.2725,-0.2707,-0.2874,-0.2872,-0.287,-0.28,0,-0.2507,-0.2668,-0.2767,-0.2881,-0.2953,-0.3001,-0.3044,-0.3057,-0.3051,-0.3013,-0.299,-0.2966,-0.3,-0.2976,-0.2959,-0.2938,-0.2908,-0.2963,-0.2762,-0.2757,-0.2658,-0.2691,-0.257,-0.249,-0.279,-0.2788,-0.2787,0,-0.2553,-0.2652,-0.2785,-0.2894,-0.292,-0.2981,-0.2962,-0.3014,-0.2973,-0.2957,-0.2904,-0.288,-0.2878,-0.2898,-0.2837,-0.2858,-0.2833,-0.282,-0.2815,-0.2688,-0.2667,-0.2464,-0.246,-0.245,-0.2771,-0.2772,-0.2773,0,-0.2432,-0.2637,-0.2719,-0.2778,-0.2921,-0.2927,-0.2966,-0.2951,-0.2942,-0.2898,-0.2871,-0.2815,-0.2807,-0.2751,-0.2772,-0.2784,-0.2691,-0.2689,-0.2593,-0.259,-0.2413,-0.2397,-0.2331,-0.2606,-0.2607,-0.2607,-0.2607,0,-0.242,-0.2468,-0.2661,-0.2696,-0.272,-0.2838,-0.2814,-0.2824,-0.2827,-0.2781,-0.2812,-0.277,-0.2767,-0.2728,-0.2722,-0.2631,-0.2634,-0.2583,-0.2547,-0.2459,-0.2448,-0.2369,-0.2404,-0.2604,-0.2605,-0.2605,-0.2606,0,-0.225,-0.2408,-0.248,-0.2629,-0.2672,-0.2657,-0.2754,-0.2714,-0.2754,-0.2708,-0.2703,-0.2725,-0.2675,-0.2662,-0.2596,-0.2565,-0.2442,-0.2452,-0.2381,-0.2337,-0.2224,-0.2271,-0.2149,-0.209,-0.2315,-0.2313,-0.2311,0,-0.218,-0.2216,-0.2374,-0.2389,-0.2454,-0.2499,-0.2514,-0.263,-0.2618,-0.2664,-0.2622,-0.2609,-0.2537,-0.2445,-0.2382,-0.2295,-0.2329,-0.216,-0.2159,-0.2184,-0.221,-0.2261,-0.2225,-0.2002,-0.1998,-0.1995,-0.1992,0,-0.2001,-0.2053,-0.2097,-0.2156,-0.2199,-0.225,-0.2308,-0.2311,-0.2423,-0.2405,-0.2379,-0.2341,-0.2312,-0.2176,-0.211,-0.2053,-0.2104,-0.2082,-0.2092,-0.1938,-0.1998,-0.1934,-0.2139,-0.196,-0.1963,-0.1965,-0.1967,-0.1968,-0.1812,-0.1792,-0.1859,-0.188,-0.1921,-0.1932,-0.1888,-0.1949,-0.1918,-0.1809,-0.2031,-0.1877,-0.2035,-0.1905,-0.1856,-0.1759,-0.1845,-0.172,-0.1773,-0.1824,-0.1754,-0.1916,-0.1704,-0.1706,-0.1707,-0.1709,-0.171,0,-0.1594,-0.1596,-0.1587,-0.16,-0.1528,-0.1658,-0.1681,-0.1589,-0.1452,-0.1389,-0.1332,-0.143,-0.1423,-0.1529,-0.1555,-0.1487,-0.1469,-0.1475,-0.1516,-0.149,-0.159,-0.1562,-0.1325,-0.1325,-0.1325,-0.1325,-0.1325,-0.1325,-0.148,-0.1405,-0.1416,-0.1227,-0.1205,-0.1085,-0.1051,-0.0931,-0.0843,-0.0619,-0.0541,-0.0575,-0.1001,-0.1442,-0.1463,-0.1393,-0.1391,-0.1338,-0.14,-0.1488,-0.1516,-0.1542,-0.1522,-0.1281,-0.1281,-0.1221,-0.1221,-0.1221]},{"header":{"parameterUnit":"m.s-1","parameterCategory":2,"la1":30.2991,"la2":30.254,"lo1":-89.0895,"lo2":-89.0444,"dy":0.0017,"dx":0.0017,"nx":28,"ny":28,"refTime":"2025-06-13T21:00:00:Z","depth":"0","parameterNumber":3,"parameterNumberName":"V-component_of_CURRENTS"},"data":[0,0,0,0,0,0,0,0,0,0,0,0,0,0,0,0,0,0,0,0,0,0,0,0,0,0,0,0,0,0,0,0,0,0,0,0,0,0,0,0,0,0,0,0,0,0,0,0,0,0,0,0,0,0,0,0,0,0,0.0382,0.0383,0,0.0523,0.0525,0.0526,0.0638,0.064,0.0641,0.0642,0.0782,0.0785,0.0787,0,0,0,0,0,0,0,0,0,0,0,0,0,0.0254,0.0255,0.0382,0.0384,0.0385,0.0523,0.0525,0.0526,0.0638,0.064,0.0641,0.0642,0.0781,0.0784,0.0787,0,0,0,0,0,0,0,0,0,0,0,0,0,0.0342,0.0256,0.0381,0.0459,0.0467,0.0522,0.0525,0.0527,0.0638,0.064,0.0641,0.0643,0.078,0.0784,0.0788,0.0775,0,0,0.08,0.0801,0,0,0,0,0,0,0,0,0.0337,0.0347,0.0445,0.0453,0.0463,0.0566,0.0531,0.061,0.0637,0.0572,0.0642,0.0644,0.0709,0.0719,0.074,0.0781,0.0787,0.08,0.0802,0.0804,0.0805,0,0,0,0,0,0,0,0.0331,0.0341,0.0436,0.0447,0.0458,0.0502,0.0516,0.0547,0.0627,0.0577,0.0586,0.0603,0.0714,0.0736,0.0744,0.0789,0.08,0.0803,0.0806,0.0807,0.0871,0.087,0,0,0,0,0,0,0.0311,0.0335,0.0432,0.0441,0.0405,0.0503,0.0518,0.053,0.0627,0.0644,0.0602,0.0608,0.0728,0.0739,0.0749,0.0757,0.0804,0.0808,0.081,0.0871,0.0871,0.087,0,0,0,0,0,0,0.0308,0.0318,0.0426,0.0393,0.041,0.0503,0.0515,0.0532,0.0556,0.0646,0.0663,0.0609,0.073,0.0744,0.0778,0.0763,0.0809,0.0813,0.0872,0.0871,0.087,0.0762,0,0,0,0,0,0,0.0303,0.0316,0.0305,0.0391,0.0411,0.0446,0.0514,0.0533,0.0565,0.0574,0.0657,0.0673,0.0732,0.0772,0.0782,0.0769,0.0816,0.0873,0.0872,0.0871,0.0766,0.0757,0.075,0,0,0,0,0,0.0298,0.0274,0.0304,0.0315,0.0397,0.0445,0.0458,0.053,0.0563,0.056,0.0625,0.067,0.0772,0.0774,0.0786,0.0774,0.0874,0.0872,0.0871,0.077,0.0759,0.075,0,0,0,0,0,0,0.0207,0.0286,0.032,0.032,0.0373,0.0464,0.0464,0.0515,0.0563,0.057,0.0658,0.0676,0.0712,0.0748,0.0749,0.079,0.0831,0.0832,0.0751,0.0741,0.0733,0.0702,0.0819,0,0,0,0,0,0.0181,0.0187,0.0271,0.0266,0.0288,0.0371,0.0396,0.0446,0.0507,0.0531,0.0595,0.0657,0.0713,0.073,0.0788,0.079,0.0819,0.0792,0.0784,0.0777,0.076,0.0757,0.0746,0.0865,0.0865,0.0865,0,0,0.0144,0.0187,0.019,0.0247,0.0293,0.0311,0.039,0.0416,0.0437,0.0534,0.0566,0.0635,0.0712,0.0739,0.0754,0.0764,0.0767,0.0775,0.0768,0.0755,0.0755,0.0743,0.0732,0.0864,0.0864,0.0865,0,0,0.007,0.0109,0.0091,0.0128,0.0189,0.0248,0.025,0.0334,0.0375,0.0414,0.0499,0.0548,0.0623,0.0676,0.0713,0.0683,0.0735,0.0703,0.062,0.0617,0.0606,0.0597,0.0652,0.0649,0.0683,0.0683,0.0683,0,0.0021,0.0013,0.0089,0.0084,0.0101,0.0212,0.0196,0.0256,0.0343,0.0351,0.041,0.0515,0.0595,0.0615,0.0628,0.0663,0.0683,0.065,0.0603,0.0594,0.0587,0.0646,0.0643,0.0677,0.0678,0.0679,0.0679,0,-0.0052,-0.0063,-0.0076,-0.0038,-0.0009,-0.001,0.0087,0.0116,0.0184,0.0241,0.0283,0.0394,0.0447,0.049,0.0562,0.0547,0.0589,0.0603,0.062,0.0568,0.0635,0.0634,0.067,0.0672,0.0673,0.0675,0,0,-0.0143,-0.0134,-0.0136,-0.0157,-0.008,-0.0068,-0.0038,0.0004,0.0012,0.01,0.0104,0.022,0.0274,0.032,0.0407,0.0421,0.043,0.0482,0.0484,0.0524,0.0453,0.0532,0.0541,0.0417,0.0416,0.0415,0.0532,0,-0.0227,-0.0292,-0.0245,-0.0294,-0.032,-0.0226,-0.0205,-0.015,-0.0074,-0.0034,0.0061,0.012,0.0211,0.0251,0.0269,0.0409,0.0417,0.04,0.0509,0.0514,0.0577,0.0537,0.0607,0.0719,0.0532,0.0532,0.0532,0,-0.0301,-0.0343,-0.042,-0.044,-0.0439,-0.0436,-0.0402,-0.0367,-0.0278,-0.0224,-0.0175,-0.0066,0.0011,0.0093,0.0224,0.0204,0.0306,0.0401,0.0407,0.0511,0.0589,0.0736,0.0726,0.0899,0.0532,0.0532,0.0532,0,-0.0405,-0.0458,-0.0536,-0.0539,-0.053,-0.0548,-0.0523,-0.0444,-0.0417,-0.0338,-0.03,-0.0217,-0.0124,-0.0034,0.0202,0.0198,0.0355,0.0373,0.0529,0.0539,0.0637,0.0657,0.079,0.0413,0.0413,0.0412,0.0412,0,-0.05,-0.0558,-0.0598,-0.0639,-0.0718,-0.066,-0.0699,-0.0648,-0.0572,-0.0535,-0.0409,-0.0333,-0.0155,-0.0013,0.0145,0.0358,0.0302,0.051,0.0556,0.0608,0.0623,0.081,0.0868,0.0417,0.0416,0.0415,0.0414,0,-0.057,-0.0604,-0.0699,-0.0749,-0.0769,-0.0812,-0.0806,-0.0813,-0.072,-0.0659,-0.0628,-0.0422,-0.0217,-0.0026,0.019,0.0321,0.0615,0.0575,0.0663,0.0714,0.1003,0.1051,0.1207,0.1317,0.0749,0.0751,0.0753,0,-0.0599,-0.0663,-0.0783,-0.0844,-0.0868,-0.0928,-0.0955,-0.09,-0.0887,-0.0685,-0.0658,-0.0427,-0.0221,0.0127,0.0372,0.0627,0.0739,0.0831,0.0823,0.1023,0.111,0.1134,0.1217,0.0937,0.094,0.0943,0.0945,0,-0.0642,-0.0691,-0.0767,-0.0911,-0.0985,-0.1062,-0.109,-0.1101,-0.0983,-0.0863,-0.0605,-0.04,-0.0038,0.032,0.0615,0.0766,0.0969,0.0895,0.106,0.1227,0.1301,0.143,0.0898,0.097,0.0967,0.0966,0.0964,0.0963,-0.0642,-0.0714,-0.082,-0.0945,-0.1043,-0.1122,-0.1147,-0.1133,-0.1043,-0.0802,-0.0543,-0.0133,0.0344,0.0795,0.0938,0.1257,0.1185,0.1379,0.1415,0.1418,0.1529,0.1076,0.1215,0.1214,0.1213,0.1212,0.1212,0,-0.0623,-0.0711,-0.0837,-0.0972,-0.1058,-0.1114,-0.1169,-0.1125,-0.0986,-0.076,-0.0406,0.041,0.0831,0.1178,0.1584,0.1778,0.1805,0.1869,0.192,0.1975,0.1552,0.1567,0.1839,0.1838,0.1838,0.1838,0.1838,0.1838,-0.0614,-0.0716,-0.0797,-0.0924,-0.1009,-0.1056,-0.1069,-0.0983,-0.0842,-0.0376,0.01,0.0522,0.1164,0.1839,0.2216,0.2243,0.2419,0.2384,0.247,0.2186,0.2142,0.2101,0.2131,0.2516,0.2516,0.2904,0.2908,0.2911]}],[{"header":{"parameterUnit":"m.s-1","parameterCategory":2,"la1":30.2991,"la2":30.254,"lo1":-89.0895,"lo2":-89.0444,"dy":0.0017,"dx":0.0017,"nx":28,"ny":28,"refTime":"2025-06-13T21:00:00:Z","depth":"2","parameterNumber":2,"parameterNumberName":"U-component_of_CURRENTS"},"data":[0,0,0,0,0,0,0,0,0,0,0,0,0,0,0,0,0,0,0,0,0,0,0,0,0,0,0,0,0,0,0,0,0,0,0,0,0,0,0,0,0,0,0,0,0,0,0,0,0,0,0,0,0,0,0,0,0,0,-0.2202,-0.2204,0,-0.2289,-0.229,-0.229,-0.2294,-0.2294,-0.2293,-0.2292,-0.2324,-0.2326,-0.2327,0,0,0,0,0,0,0,0,0,0,0,0,0,-0.2081,-0.2083,-0.2202,-0.2204,-0.2205,-0.2289,-0.229,-0.229,-0.2294,-0.2294,-0.2293,-0.2292,-0.2324,-0.2325,-0.2327,0,0,0,0,0,0,0,0,0,0,0,0,0,-0.2143,-0.2083,-0.2202,-0.222,-0.2223,-0.2289,-0.229,-0.2291,-0.2295,-0.2294,-0.2293,-0.2292,-0.2323,-0.2325,-0.2327,-0.236,0,0,-0.2334,-0.2335,0,0,0,0,0,0,0,0,-0.214,-0.2147,-0.2216,-0.2219,-0.2222,-0.2283,-0.2259,-0.2313,-0.2295,-0.2263,-0.2292,-0.2291,-0.2309,-0.2312,-0.2326,-0.2362,-0.2363,-0.2334,-0.2336,-0.2337,-0.2337,0,0,0,0,0,0,0,-0.2135,-0.2144,-0.2232,-0.2218,-0.2222,-0.2239,-0.2245,-0.2269,-0.2286,-0.2266,-0.2267,-0.2284,-0.2309,-0.2324,-0.2326,-0.2364,-0.2334,-0.2336,-0.2337,-0.2338,-0.2476,-0.2478,0,0,0,0,0,0,-0.2132,-0.214,-0.223,-0.2235,-0.2183,-0.2242,-0.2249,-0.2261,-0.2287,-0.2292,-0.2285,-0.2284,-0.232,-0.2324,-0.2327,-0.237,-0.2336,-0.2339,-0.234,-0.2473,-0.2476,-0.2479,0,0,0,0,0,0,-0.2129,-0.2139,-0.2226,-0.2193,-0.2206,-0.2245,-0.2259,-0.2264,-0.2286,-0.2303,-0.2305,-0.2302,-0.232,-0.2324,-0.2365,-0.2371,-0.234,-0.2341,-0.2471,-0.2474,-0.2477,-0.2453,0,0,0,0,0,0,-0.2125,-0.2137,-0.2151,-0.2193,-0.2208,-0.2281,-0.226,-0.2266,-0.2299,-0.2299,-0.2319,-0.232,-0.2319,-0.2362,-0.2367,-0.2373,-0.2343,-0.2468,-0.2472,-0.2476,-0.2451,-0.2456,-0.2459,0,0,0,0,0,-0.2121,-0.2151,-0.2151,-0.2163,-0.2223,-0.2284,-0.2293,-0.2314,-0.2301,-0.2326,-0.2336,-0.232,-0.2394,-0.2366,-0.2371,-0.2378,-0.2465,-0.2471,-0.2476,-0.2449,-0.2455,-0.2459,0,0,0,0,0,0,-0.2111,-0.2156,-0.2157,-0.22,-0.2243,-0.2286,-0.2313,-0.2324,-0.2352,-0.2349,-0.2347,-0.2352,-0.2385,-0.2404,-0.2373,-0.2438,-0.2429,-0.2435,-0.2407,-0.2412,-0.2416,-0.2407,-0.2345,0,0,0,0,0,-0.2114,-0.2143,-0.219,-0.2224,-0.2243,-0.2276,-0.2303,-0.2324,-0.2354,-0.2365,-0.2381,-0.2401,-0.2414,-0.2429,-0.2453,-0.2492,-0.2482,-0.2507,-0.2511,-0.2514,-0.2516,-0.2508,-0.251,-0.2496,-0.2496,-0.2496,0,0,-0.2116,-0.2149,-0.2162,-0.2223,-0.2249,-0.2284,-0.2289,-0.2342,-0.2366,-0.2365,-0.2403,-0.2415,-0.243,-0.2464,-0.2482,-0.2477,-0.2515,-0.2521,-0.2522,-0.2523,-0.2514,-0.2514,-0.2515,-0.25,-0.2499,-0.2498,0,0,-0.2132,-0.2164,-0.2186,-0.2225,-0.2282,-0.2309,-0.2325,-0.238,-0.2398,-0.2444,-0.2438,-0.2458,-0.2501,-0.2503,-0.2506,-0.2556,-0.2532,-0.2576,-0.2587,-0.2579,-0.2578,-0.2578,-0.2556,-0.2553,-0.2581,-0.2581,-0.2581,0,-0.2135,-0.2165,-0.2205,-0.2238,-0.2273,-0.2315,-0.2348,-0.2378,-0.2441,-0.2464,-0.2458,-0.2507,-0.251,-0.2529,-0.2541,-0.2557,-0.2552,-0.2553,-0.2578,-0.2577,-0.2577,-0.2555,-0.2552,-0.2581,-0.2581,-0.2581,-0.2581,0,-0.2151,-0.2187,-0.2209,-0.2253,-0.2299,-0.2346,-0.2393,-0.2441,-0.2463,-0.2488,-0.2529,-0.2536,-0.2563,-0.2567,-0.256,-0.2574,-0.2569,-0.2572,-0.2547,-0.2576,-0.2552,-0.255,-0.258,-0.258,-0.258,-0.2581,0,0,-0.2129,-0.2203,-0.221,-0.2238,-0.2316,-0.2358,-0.2409,-0.2471,-0.25,-0.2543,-0.2566,-0.2581,-0.2589,-0.2596,-0.2595,-0.2587,-0.2562,-0.2582,-0.2582,-0.2529,-0.2537,-0.2455,-0.2444,-0.2566,-0.2566,-0.2566,-0.2515,0,-0.2128,-0.218,-0.2225,-0.2285,-0.2318,-0.2388,-0.2434,-0.2498,-0.2538,-0.2575,-0.2582,-0.2601,-0.2597,-0.2601,-0.2594,-0.2575,-0.2559,-0.2575,-0.2546,-0.2545,-0.2442,-0.244,-0.2259,-0.2192,-0.2512,-0.2512,-0.2512,0,-0.2114,-0.2163,-0.2207,-0.2308,-0.2329,-0.2369,-0.2461,-0.251,-0.2573,-0.2604,-0.2628,-0.2635,-0.2633,-0.2616,-0.2591,-0.2605,-0.2571,-0.2549,-0.2547,-0.2477,-0.2458,-0.2223,-0.2176,-0.2508,-0.2508,-0.2508,-0.2509,0,-0.2059,-0.2151,-0.2186,-0.2217,-0.2328,-0.2369,-0.2427,-0.2511,-0.2556,-0.2608,-0.2633,-0.2648,-0.2638,-0.2617,-0.2575,-0.2585,-0.253,-0.2536,-0.2431,-0.2425,-0.2268,-0.2248,-0.2507,-0.2507,-0.2507,-0.2507,-0.2507,0,-0.2033,-0.2066,-0.2161,-0.2184,-0.2241,-0.2335,-0.2396,-0.2462,-0.2541,-0.2576,-0.2628,-0.2635,-0.2637,-0.2611,-0.2576,-0.2488,-0.253,-0.2423,-0.2404,-0.2257,-0.2237,-0.2519,-0.2521,-0.2505,-0.2506,-0.2506,-0.2506,0,-0.1953,-0.2013,-0.2064,-0.2177,-0.2208,-0.2244,-0.2363,-0.2402,-0.2501,-0.2539,-0.2552,-0.2613,-0.2574,-0.2561,-0.251,-0.247,-0.2406,-0.2364,-0.2184,-0.2144,-0.2308,-0.231,-0.2242,-0.2239,-0.2236,-0.2234,-0.2232,0,-0.1911,-0.1925,-0.2026,-0.2042,-0.2085,-0.2159,-0.2201,-0.2342,-0.2386,-0.2509,-0.2504,-0.2514,-0.2467,-0.2379,-0.2301,-0.2211,-0.2305,-0.2021,-0.2005,-0.2291,-0.228,-0.2287,-0.2292,-0.1786,-0.1781,-0.1776,-0.1773,0,-0.1834,-0.1861,-0.19,-0.1932,-0.197,-0.2026,-0.2102,-0.2135,-0.2287,-0.2339,-0.2368,-0.2343,-0.227,-0.209,-0.2,-0.1934,-0.2025,-0.1926,-0.2257,-0.1889,-0.1859,-0.1849,-0.187,-0.1733,-0.1737,-0.174,-0.1742,-0.1744,-0.1757,-0.1752,-0.1787,-0.1805,-0.1843,-0.1856,-0.1843,-0.1933,-0.1981,-0.2023,-0.2141,-0.2058,-0.2029,-0.1774,-0.1673,-0.1603,-0.1743,-0.1683,-0.1698,-0.1717,-0.1681,-0.1648,-0.1475,-0.1477,-0.1479,-0.1481,-0.1483,0,-0.1661,-0.1652,-0.1658,-0.1668,-0.1643,-0.1716,-0.1742,-0.1696,-0.1671,-0.1758,-0.1775,-0.161,-0.1482,-0.1453,-0.1268,-0.124,-0.1236,-0.1202,-0.12,-0.124,-0.1275,-0.1218,-0.0888,-0.0886,-0.0885,-0.0883,0,0,-0.1608,-0.1559,-0.1555,-0.1462,-0.1461,-0.1387,-0.1358,-0.1294,-0.1297,-0.1261,-0.126,-0.1402,-0.1402,-0.1156,-0.1092,-0.0953,-0.1085,-0.0902,-0.1376,-0.1411,-0.1444,-0.1544,-0.1499,0,0,0,0,0]},{"header":{"parameterUnit":"m.s-1","parameterCategory":2,"la1":30.2991,"la2":30.254,"lo1":-89.0895,"lo2":-89.0444,"dy":0.0017,"dx":0.0017,"nx":28,"ny":28,"refTime":"2025-06-13T21:00:00:Z","depth":"2","parameterNumber":3,"parameterNumberName":"V-component_of_CURRENTS"},"data":[0,0,0,0,0,0,0,0,0,0,0,0,0,0,0,0,0,0,0,0,0,0,0,0,0,0,0,0,0,0,0,0,0,0,0,0,0,0,0,0,0,0,0,0,0,0,0,0,0,0,0,0,0,0,0,0,0,0,-0.0315,-0.0314,0,-0.0241,-0.0241,-0.024,-0.0193,-0.0193,-0.0193,-0.0193,-0.0086,-0.0083,-0.0081,0,0,0,0,0,0,0,0,0,0,0,0,0,-0.0362,-0.0362,-0.0315,-0.0314,-0.0313,-0.0242,-0.0241,-0.024,-0.0193,-0.0193,-0.0193,-0.0192,-0.0087,-0.0084,-0.008,0,0,0,0,0,0,0,0,0,0,0,0,0,-0.0321,-0.0362,-0.0315,-0.0282,-0.0278,-0.0242,-0.0241,-0.0239,-0.0193,-0.0193,-0.0193,-0.0192,-0.0088,-0.0084,-0.008,-0.0065,0,0,-0.0068,-0.0067,0,0,0,0,0,0,0,0,-0.0323,-0.0319,-0.0287,-0.0284,-0.0279,-0.0226,-0.0218,-0.0179,-0.0194,-0.0226,-0.0193,-0.0192,-0.013,-0.0122,-0.011,-0.006,-0.0055,-0.0068,-0.0066,-0.0064,-0.0063,0,0,0,0,0,0,0,-0.0326,-0.0322,-0.0286,-0.0287,-0.0282,-0.0251,-0.0246,-0.021,-0.0181,-0.0223,-0.0219,-0.0211,-0.0127,-0.0114,-0.0107,-0.0054,-0.0068,-0.0065,-0.0062,-0.0061,0.0048,0.0049,0,0,0,0,0,0,-0.0338,-0.0325,-0.0289,-0.0284,-0.03,-0.0251,-0.0245,-0.0244,-0.0182,-0.0172,-0.0211,-0.0209,-0.0121,-0.0112,-0.0103,-0.0073,-0.0064,-0.006,-0.0058,0.0048,0.0048,0.0049,0,0,0,0,0,0,-0.034,-0.0336,-0.0292,-0.0302,-0.0294,-0.0251,-0.025,-0.0243,-0.0227,-0.0173,-0.0163,-0.0204,-0.012,-0.0109,-0.0073,-0.0068,-0.0059,-0.0055,0.0047,0.0048,0.0049,-0.0017,0,0,0,0,0,0,-0.0341,-0.0337,-0.0339,-0.0303,-0.0294,-0.0278,-0.025,-0.0241,-0.0223,-0.0219,-0.0163,-0.0153,-0.0119,-0.008,-0.007,-0.0063,-0.0052,0.0046,0.0047,0.0048,-0.0015,-0.0018,-0.0021,0,0,0,0,0,-0.0344,-0.0354,-0.034,-0.0336,-0.0299,-0.0279,-0.0272,-0.0239,-0.0223,-0.0222,-0.0182,-0.0154,-0.0065,-0.0077,-0.0065,-0.0057,0.0046,0.0047,0.0048,-0.0014,-0.0018,-0.0021,0,0,0,0,0,0,-0.0375,-0.0349,-0.0333,-0.0335,-0.0311,-0.0271,-0.0266,-0.0243,-0.021,-0.0205,-0.0153,-0.0141,-0.0109,-0.0071,-0.0085,-0.0019,-0.0002,0.0001,-0.0053,-0.0056,-0.0059,-0.006,-0.0049,0,0,0,0,0,-0.0384,-0.0385,-0.0352,-0.0354,-0.0344,-0.0305,-0.0291,-0.0271,-0.0237,-0.0222,-0.0181,-0.0133,-0.0094,-0.0068,-0.0032,0.0003,0.0047,0.002,0.0017,0.0014,0.0023,0.0092,0.0096,0.0053,0.0053,0.0053,0,0,-0.0397,-0.0382,-0.0383,-0.036,-0.0338,-0.0331,-0.0296,-0.0282,-0.0269,-0.0215,-0.0186,-0.0148,-0.0089,-0.0055,-0.0036,-0.0022,0.0048,0.0016,0.0013,0.0023,0.0094,0.0098,0.0102,0.0054,0.0054,0.0054,0,0,-0.0429,-0.0411,-0.0424,-0.0407,-0.038,-0.0353,-0.0352,-0.0313,-0.0289,-0.0261,-0.0216,-0.0172,-0.0117,-0.0067,-0.0036,-0.0027,0.0023,-0.0016,-0.0022,0.0044,0.0048,0.0052,0.0098,0.0107,-0.0008,-0.0009,-0.0009,0,-0.0446,-0.0454,-0.0424,-0.0428,-0.0416,-0.0368,-0.0372,-0.0341,-0.0295,-0.0266,-0.0261,-0.0157,-0.0118,-0.0052,-0.0053,-0.0033,0.0005,-0.0022,0.0039,0.0044,0.0049,0.0096,0.0106,-0.0012,-0.0011,-0.0011,-0.0011,0,-0.0484,-0.0487,-0.0493,-0.0481,-0.0463,-0.0461,-0.0415,-0.0387,-0.0353,-0.0312,-0.0248,-0.019,-0.0122,-0.0104,-0.008,-0.0016,-0.0002,0.0017,0.0041,0.0049,0.0098,0.011,-0.0016,-0.0015,-0.0014,-0.0013,0,0,-0.0531,-0.0523,-0.0524,-0.0528,-0.049,-0.0484,-0.0451,-0.0402,-0.0373,-0.0317,-0.027,-0.0199,-0.0155,-0.0116,-0.0068,-0.001,0.0045,0.0013,0.0018,0.0048,0.0179,0.021,0.0226,0.0071,0.0074,0.0075,0.0191,0,-0.0569,-0.0598,-0.0572,-0.0587,-0.0595,-0.0535,-0.051,-0.0455,-0.0398,-0.0342,-0.0252,-0.0199,-0.0161,-0.0134,-0.0067,0.0013,0.0077,0.0011,0.0178,0.0183,0.02,0.0242,0.0218,0.0322,0.0204,0.0206,0.0207,0,-0.0611,-0.0626,-0.0653,-0.0639,-0.0635,-0.0631,-0.057,-0.054,-0.0437,-0.0391,-0.0301,-0.0231,-0.0133,-0.0112,0.0054,0.0009,0.0091,0.0156,0.0163,0.0227,0.0237,0.0301,0.0349,0.0228,0.0226,0.0225,0.0223,0,-0.0665,-0.0677,-0.0702,-0.07,-0.0676,-0.0666,-0.0643,-0.0557,-0.0526,-0.0417,-0.0381,-0.0244,-0.0182,-0.0055,0.0085,0.007,0.0262,0.0262,0.0376,0.0378,0.0412,0.0414,0.0392,0.0392,0.0391,0.0391,0.0391,0,-0.0711,-0.0731,-0.0735,-0.0752,-0.0775,-0.073,-0.0722,-0.0667,-0.0588,-0.0541,-0.0416,-0.0338,-0.0164,-0.003,0.0089,0.0275,0.0276,0.0392,0.0423,0.0387,0.0385,0.0348,0.0341,0.0395,0.0394,0.0394,0.0393,0,-0.0761,-0.0761,-0.0799,-0.0802,-0.0806,-0.0823,-0.0799,-0.0784,-0.0697,-0.0629,-0.0598,-0.0406,-0.0219,-0.0044,0.0172,0.0282,0.0448,0.0514,0.0451,0.0473,0.0513,0.0502,0.0652,0.0655,0.0656,0.0658,0.066,0,-0.0787,-0.0813,-0.0855,-0.0889,-0.0896,-0.0914,-0.0921,-0.0852,-0.0826,-0.0656,-0.0625,-0.042,-0.0244,0.0081,0.0297,0.0526,0.0516,0.0634,0.0615,0.0532,0.0546,0.0532,0.0518,0.0625,0.0626,0.0627,0.0627,0,-0.0838,-0.0854,-0.0889,-0.0967,-0.1001,-0.1028,-0.1027,-0.1024,-0.0913,-0.0818,-0.0638,-0.0475,-0.0137,0.0145,0.0436,0.0561,0.0592,0.0659,0.0619,0.0557,0.0515,0.0526,0.0512,0.0635,0.0634,0.0633,0.0633,0.0633,-0.0873,-0.0916,-0.0971,-0.1038,-0.1087,-0.1124,-0.1133,-0.1093,-0.1024,-0.0841,-0.0677,-0.0393,-0.0108,0.0327,0.0524,0.0692,0.0692,0.0736,0.073,0.0724,0.0695,0.0658,0.0798,0.0798,0.0798,0.0799,0.0799,0,-0.0915,-0.0961,-0.1036,-0.1115,-0.1178,-0.1181,-0.1184,-0.1147,-0.1053,-0.0828,-0.0622,-0.0279,0.0049,0.0322,0.061,0.0788,0.0754,0.0798,0.0725,0.0718,0.0712,0.0678,0.078,0.078,0.078,0.078,0,0,-0.0939,-0.1012,-0.1051,-0.1168,-0.1223,-0.1262,-0.1256,-0.116,-0.1001,-0.0754,-0.052,-0.0248,0.0103,0.0296,0.0514,0.0661,0.0636,0.0662,0.0663,0.0546,0.0537,0.0668,0.0609,0,0,0,0,0]}],[{"header":{"parameterUnit":"m.s-1","parameterCategory":2,"la1":30.2991,"la2":30.254,"lo1":-89.0895,"lo2":-89.0444,"dy":0.0017,"dx":0.0017,"nx":28,"ny":28,"refTime":"2025-06-13T21:00:00:Z","depth":"4","parameterNumber":2,"parameterNumberName":"U-component_of_CURRENTS"},"data":[0,0,0,0,0,0,0,0,0,0,0,0,0,0,0,0,0,0,0,0,0,0,0,0,0,0,0,0,0,0,0,0,0,0,0,0,0,0,0,0,0,0,0,0,0,0,0,0,0,0,0,0,0,0,0,0,0,0,-0.1523,-0.1524,0,-0.1598,-0.1599,-0.16,-0.1637,-0.1637,-0.1637,-0.1637,-0.172,-0.1722,-0.1724,0,0,0,0,0,0,0,0,0,0,0,0,0,-0.1423,-0.1425,-0.1523,-0.1524,-0.1525,-0.1598,-0.1599,-0.16,-0.1637,-0.1637,-0.1637,-0.1637,-0.1719,-0.1722,-0.1724,0,0,0,0,0,0,0,0,0,0,0,0,0,-0.1479,-0.1425,-0.1523,-0.1552,-0.1556,-0.1598,-0.1599,-0.16,-0.1637,-0.1637,-0.1637,-0.1637,-0.1718,-0.1722,-0.1725,-0.1744,0,0,-0.1735,-0.1736,0,0,0,0,0,0,0,0,-0.1476,-0.1483,-0.1547,-0.155,-0.1554,-0.1609,-0.1594,-0.1649,-0.1637,-0.1606,-0.1637,-0.1637,-0.1684,-0.169,-0.1703,-0.1748,-0.1752,-0.1735,-0.1737,-0.1738,-0.1739,0,0,0,0,0,0,0,-0.1472,-0.148,-0.1553,-0.1548,-0.1553,-0.1566,-0.1574,-0.1605,-0.1644,-0.1609,-0.1612,-0.162,-0.1686,-0.17,-0.1706,-0.1753,-0.1735,-0.1738,-0.174,-0.1741,-0.1873,-0.1874,0,0,0,0,0,0,-0.1463,-0.1476,-0.155,-0.1555,-0.1515,-0.1568,-0.1576,-0.1591,-0.1643,-0.1651,-0.162,-0.1622,-0.1694,-0.1702,-0.1709,-0.179,-0.1738,-0.1741,-0.1743,-0.1871,-0.1873,-0.1875,0,0,0,0,0,0,-0.146,-0.1469,-0.1547,-0.1517,-0.1528,-0.1569,-0.1585,-0.1592,-0.1631,-0.1652,-0.166,-0.1654,-0.1695,-0.1704,-0.1761,-0.1791,-0.1743,-0.1746,-0.1869,-0.1872,-0.1874,-0.1917,0,0,0,0,0,0,-0.1457,-0.1468,-0.1488,-0.1517,-0.1529,-0.1589,-0.1586,-0.1594,-0.1635,-0.1638,-0.1683,-0.1689,-0.1696,-0.1756,-0.1764,-0.1795,-0.1748,-0.1867,-0.1871,-0.1873,-0.1914,-0.1921,-0.1926,0,0,0,0,0,-0.1454,-0.1479,-0.1489,-0.1498,-0.1552,-0.159,-0.1599,-0.1627,-0.1636,-0.166,-0.1693,-0.1689,-0.178,-0.176,-0.1769,-0.1802,-0.1866,-0.187,-0.1873,-0.1911,-0.1919,-0.1926,0,0,0,0,0,0,-0.1449,-0.1486,-0.1497,-0.1534,-0.1566,-0.1597,-0.1625,-0.1643,-0.1688,-0.1699,-0.1714,-0.1724,-0.1781,-0.1789,-0.1767,-0.1848,-0.1821,-0.1826,-0.1846,-0.1854,-0.1861,-0.1871,-0.1751,0,0,0,0,0,-0.1456,-0.1484,-0.1518,-0.1549,-0.1568,-0.1602,-0.1626,-0.1647,-0.1683,-0.1704,-0.1735,-0.1768,-0.1799,-0.1826,-0.1852,-0.1904,-0.1893,-0.1929,-0.1936,-0.1941,-0.1957,-0.1963,-0.1971,-0.1886,-0.1886,-0.1886,0,0,-0.1463,-0.1487,-0.1504,-0.1551,-0.1579,-0.1616,-0.1617,-0.1663,-0.1702,-0.1706,-0.1776,-0.1794,-0.1817,-0.187,-0.1896,-0.1885,-0.1957,-0.1945,-0.195,-0.1963,-0.1968,-0.1976,-0.1983,-0.1888,-0.1888,-0.1888,0,0,-0.1479,-0.1514,-0.1539,-0.1572,-0.162,-0.1644,-0.1662,-0.1711,-0.1743,-0.1804,-0.1814,-0.1857,-0.1909,-0.1933,-0.1949,-0.2011,-0.1987,-0.2016,-0.2065,-0.2071,-0.2078,-0.2084,-0.2065,-0.2069,-0.2024,-0.2024,-0.2024,0,-0.1485,-0.1524,-0.1553,-0.1587,-0.1624,-0.1659,-0.17,-0.1739,-0.1802,-0.1838,-0.1834,-0.1921,-0.194,-0.2001,-0.2023,-0.2026,-0.2014,-0.2031,-0.2078,-0.2084,-0.2089,-0.2069,-0.2072,-0.2026,-0.2026,-0.2026,-0.2026,0,-0.1511,-0.1556,-0.1578,-0.1633,-0.1676,-0.1721,-0.1773,-0.1827,-0.1867,-0.1901,-0.1976,-0.2001,-0.2051,-0.2061,-0.2065,-0.212,-0.2092,-0.2079,-0.2055,-0.21,-0.2076,-0.2079,-0.203,-0.2029,-0.2028,-0.2028,0,0,-0.1482,-0.1577,-0.1587,-0.163,-0.1709,-0.1747,-0.1823,-0.1898,-0.1953,-0.2006,-0.2067,-0.2125,-0.2138,-0.2157,-0.2164,-0.2179,-0.22,-0.2153,-0.2152,-0.2127,-0.2195,-0.2038,-0.2026,-0.219,-0.2191,-0.2192,-0.2156,0,-0.1494,-0.1566,-0.1616,-0.17,-0.1744,-0.1816,-0.1885,-0.196,-0.2018,-0.2084,-0.212,-0.2175,-0.2173,-0.2197,-0.2215,-0.2205,-0.2213,-0.221,-0.2162,-0.2161,-0.201,-0.2027,-0.2196,-0.2158,-0.2159,-0.2159,-0.216,0,-0.1493,-0.1548,-0.1628,-0.1746,-0.1775,-0.1832,-0.1954,-0.2022,-0.2117,-0.2162,-0.222,-0.224,-0.2289,-0.2264,-0.2279,-0.2275,-0.2248,-0.223,-0.2228,-0.2072,-0.201,-0.2109,-0.2165,-0.2164,-0.2164,-0.2163,-0.2163,0,-0.1444,-0.1557,-0.1626,-0.1665,-0.1796,-0.1858,-0.1933,-0.2044,-0.2108,-0.2206,-0.2246,-0.2301,-0.2319,-0.2315,-0.2284,-0.2286,-0.2266,-0.2257,-0.2091,-0.2079,-0.2213,-0.2207,-0.2263,-0.2263,-0.2263,-0.2263,-0.2263,0,-0.1423,-0.1484,-0.1613,-0.165,-0.1741,-0.1846,-0.1947,-0.2029,-0.2138,-0.2196,-0.2276,-0.2299,-0.2334,-0.2322,-0.2294,-0.2186,-0.2271,-0.2099,-0.2062,-0.2229,-0.2226,-0.2213,-0.2208,-0.2262,-0.2262,-0.2262,-0.2262,0,-0.1352,-0.1439,-0.1524,-0.1669,-0.1717,-0.178,-0.1936,-0.1995,-0.2121,-0.219,-0.2219,-0.2298,-0.227,-0.2272,-0.2244,-0.2171,-0.2104,-0.2045,-0.221,-0.2183,-0.1913,-0.1911,-0.1859,-0.1853,-0.1848,-0.1844,-0.1841,0,-0.132,-0.1356,-0.1506,-0.1547,-0.1615,-0.1727,-0.1791,-0.1953,-0.2007,-0.2161,-0.2161,-0.2195,-0.2216,-0.2043,-0.207,-0.1986,-0.1964,-0.1926,-0.194,-0.1904,-0.1874,-0.1879,-0.1884,-0.1833,-0.1832,-0.1831,-0.1829,0,-0.1252,-0.1313,-0.1376,-0.1454,-0.1528,-0.1611,-0.1715,-0.1743,-0.1912,-0.2049,-0.204,-0.2019,-0.1974,-0.1926,-0.1864,-0.1815,-0.1953,-0.1875,-0.1885,-0.1898,-0.1872,-0.1848,-0.1858,-0.1812,-0.1815,-0.1816,-0.1817,0,-0.1192,-0.1211,-0.1287,-0.1341,-0.1422,-0.145,-0.1536,-0.1593,-0.1673,-0.1852,-0.1834,-0.1873,-0.1947,-0.1835,-0.1784,-0.1711,-0.169,-0.1648,-0.167,-0.169,-0.1649,-0.1592,-0.1411,0,0,0,0,0,-0.1125,-0.1128,-0.1167,-0.1216,-0.1281,-0.1325,-0.1459,-0.155,-0.1714,-0.1654,-0.1748,-0.1701,-0.1639,-0.1659,-0.154,-0.1689,-0.1685,-0.1547,-0.1647,-0.1718,-0.1738,-0.1704,0,0,0,0,0,0,-0.108,-0.1115,-0.1122,-0.1084,-0.1083,-0.1147,-0.1218,-0.1335,-0.1323,-0.149,-0.1448,-0.1586,-0.1527,-0.1652,-0.1494,-0.1499,-0.1527,-0.1587,-0.1583,-0.1707,-0.1725,-0.1741,-0.1713,0,0,0,0,0]},{"header":{"parameterUnit":"m.s-1","parameterCategory":2,"la1":30.2991,"la2":30.254,"lo1":-89.0895,"lo2":-89.0444,"dy":0.0017,"dx":0.0017,"nx":28,"ny":28,"refTime":"2025-06-13T21:00:00:Z","depth":"4","parameterNumber":3,"parameterNumberName":"V-component_of_CURRENTS"},"data":[0,0,0,0,0,0,0,0,0,0,0,0,0,0,0,0,0,0,0,0,0,0,0,0,0,0,0,0,0,0,0,0,0,0,0,0,0,0,0,0,0,0,0,0,0,0,0,0,0,0,0,0,0,0,0,0,0,0,-0.0248,-0.0248,0,-0.0214,-0.0213,-0.0213,-0.0188,-0.0188,-0.0188,-0.0188,-0.0121,-0.0119,-0.0118,0,0,0,0,0,0,0,0,0,0,0,0,0,-0.0267,-0.0267,-0.0249,-0.0248,-0.0248,-0.0214,-0.0213,-0.0213,-0.0188,-0.0188,-0.0188,-0.0188,-0.0121,-0.0119,-0.0117,0,0,0,0,0,0,0,0,0,0,0,0,0,-0.0249,-0.0267,-0.0249,-0.0231,-0.0229,-0.0214,-0.0213,-0.0213,-0.0188,-0.0188,-0.0188,-0.0188,-0.0122,-0.012,-0.0117,-0.0108,0,0,-0.011,-0.0109,0,0,0,0,0,0,0,0,-0.025,-0.0248,-0.0234,-0.0232,-0.023,-0.0205,-0.0195,-0.0176,-0.0188,-0.0204,-0.0188,-0.0187,-0.0146,-0.0142,-0.0136,-0.0105,-0.0102,-0.011,-0.0108,-0.0107,-0.0106,0,0,0,0,0,0,0,-0.0251,-0.0249,-0.0235,-0.0234,-0.0231,-0.0216,-0.0213,-0.0191,-0.0177,-0.0203,-0.0201,-0.0197,-0.0145,-0.0139,-0.0134,-0.0101,-0.011,-0.0108,-0.0106,-0.0105,-0.0057,-0.0057,0,0,0,0,0,0,-0.0257,-0.0251,-0.0236,-0.0234,-0.0239,-0.0216,-0.0213,-0.0213,-0.0177,-0.0172,-0.0197,-0.0196,-0.0143,-0.0137,-0.0132,-0.0116,-0.0107,-0.0105,-0.0104,-0.0057,-0.0057,-0.0057,0,0,0,0,0,0,-0.0258,-0.0256,-0.0237,-0.0241,-0.0237,-0.0216,-0.0217,-0.0213,-0.0209,-0.0174,-0.0167,-0.0197,-0.0143,-0.0135,-0.0117,-0.0113,-0.0104,-0.0102,-0.0057,-0.0057,-0.0057,-0.0086,0,0,0,0,0,0,-0.0258,-0.0257,-0.0262,-0.0242,-0.0237,-0.0238,-0.0217,-0.0212,-0.0207,-0.0205,-0.0172,-0.0165,-0.0142,-0.0121,-0.0114,-0.011,-0.01,-0.0057,-0.0057,-0.0057,-0.0085,-0.0087,-0.0089,0,0,0,0,0,-0.0259,-0.027,-0.0262,-0.026,-0.0244,-0.0238,-0.0235,-0.0218,-0.0207,-0.0212,-0.0186,-0.0166,-0.0118,-0.0119,-0.0112,-0.0106,-0.0056,-0.0057,-0.0057,-0.0084,-0.0087,-0.0089,0,0,0,0,0,0,-0.028,-0.0268,-0.0259,-0.0265,-0.0256,-0.0234,-0.0237,-0.0223,-0.0207,-0.0204,-0.0169,-0.0161,-0.0145,-0.0124,-0.0125,-0.0094,-0.0084,-0.0083,-0.0107,-0.0109,-0.0111,-0.01,-0.0098,0,0,0,0,0,-0.0287,-0.0293,-0.0276,-0.0282,-0.0279,-0.0258,-0.0254,-0.0243,-0.0225,-0.0218,-0.0193,-0.0165,-0.0141,-0.0124,-0.0106,-0.0086,-0.0044,-0.0078,-0.008,-0.0082,-0.0069,0.0004,0.001,-0.0059,-0.0059,-0.0059,0,0,-0.0298,-0.0291,-0.0294,-0.0287,-0.0277,-0.0278,-0.0255,-0.0254,-0.0249,-0.0212,-0.02,-0.0177,-0.014,-0.0121,-0.0111,-0.0101,-0.0046,-0.0083,-0.0084,-0.007,0.0004,0.0012,0.0018,-0.0059,-0.0059,-0.0059,0,0,-0.0322,-0.0315,-0.0328,-0.0323,-0.0314,-0.0298,-0.03,-0.0283,-0.0269,-0.0259,-0.0226,-0.0194,-0.0171,-0.0129,-0.0108,-0.0108,-0.0066,-0.0113,-0.0106,-0.0036,-0.0029,-0.0022,0.002,0.0031,-0.0107,-0.0107,-0.0107,0,-0.0335,-0.0346,-0.0332,-0.0341,-0.0337,-0.031,-0.0319,-0.0302,-0.028,-0.0257,-0.0263,-0.0192,-0.0168,-0.0109,-0.0115,-0.011,-0.0076,-0.0099,-0.0037,-0.0029,-0.0022,0.002,0.0033,-0.0108,-0.0108,-0.0108,-0.0108,0,-0.0367,-0.0375,-0.0383,-0.0383,-0.0377,-0.0382,-0.0355,-0.0342,-0.0323,-0.0295,-0.0248,-0.0207,-0.0157,-0.0149,-0.0135,-0.007,-0.0067,-0.0053,-0.0027,-0.0016,0.0026,0.004,-0.0111,-0.011,-0.011,-0.0109,0,0,-0.0395,-0.0405,-0.0408,-0.0414,-0.0399,-0.0399,-0.038,-0.0348,-0.0323,-0.0291,-0.0249,-0.0199,-0.0164,-0.0136,-0.0101,-0.0041,0.0025,-0.0031,-0.0027,0.0014,0.0162,0.0132,0.0144,0.0049,0.0052,0.0054,0.0164,0,-0.0423,-0.0455,-0.0444,-0.0463,-0.0474,-0.0437,-0.0421,-0.0384,-0.0345,-0.03,-0.0225,-0.0184,-0.0161,-0.0139,-0.0071,-0.0004,0.0062,-0.0007,0.0142,0.0146,0.0123,0.016,0.0062,0.0174,0.0177,0.0179,0.0181,0,-0.0455,-0.0472,-0.0503,-0.05,-0.05,-0.0504,-0.0459,-0.0441,-0.0358,-0.0324,-0.0247,-0.0193,-0.0099,-0.0089,0.0067,0.0019,0.0091,0.0149,0.0155,0.0153,0.0143,0.0166,0.0206,0.0204,0.0202,0.02,0.0199,0,-0.0486,-0.0508,-0.0535,-0.0538,-0.0531,-0.0529,-0.0517,-0.0451,-0.0428,-0.0335,-0.0303,-0.018,-0.0127,-0.0007,0.0105,0.009,0.0271,0.0269,0.0321,0.0319,0.0325,0.0317,0.0401,0.0401,0.0401,0.04,0.04,0,-0.0514,-0.0536,-0.0559,-0.0577,-0.0601,-0.0574,-0.0573,-0.0532,-0.0468,-0.043,-0.0324,-0.0255,-0.0102,0.0016,0.0118,0.0256,0.0291,0.0338,0.0358,0.0305,0.0293,0.0333,0.0324,0.0404,0.0403,0.0403,0.0402,0,-0.054,-0.0555,-0.0595,-0.0612,-0.0623,-0.0642,-0.0639,-0.0627,-0.0556,-0.05,-0.0472,-0.0309,-0.0151,-0.0001,0.0194,0.0263,0.0401,0.0445,0.0367,0.0377,0.0396,0.0384,0.0516,0.0516,0.0516,0.0516,0.0516,0,-0.0555,-0.0581,-0.0638,-0.0676,-0.0693,-0.072,-0.0733,-0.0684,-0.0662,-0.0523,-0.0494,-0.0324,-0.0207,0.0051,0.0204,0.0406,0.043,0.0491,0.046,0.0409,0.0415,0.0402,0.039,0.0516,0.0517,0.0517,0.0517,0,-0.0583,-0.0611,-0.0647,-0.0732,-0.0775,-0.081,-0.082,-0.0811,-0.0726,-0.0663,-0.0492,-0.0326,-0.0145,0.0055,0.0208,0.0354,0.0443,0.0492,0.0493,0.0465,0.0411,0.0414,0.0402,0.0517,0.0517,0.0517,0.0517,0,-0.0605,-0.0645,-0.0707,-0.0772,-0.084,-0.0878,-0.0877,-0.0828,-0.0787,-0.0624,-0.0563,-0.0334,-0.019,0.0031,0.018,0.0309,0.0338,0.0365,0.0373,0.0374,0.0291,0.0199,0.0275,0,0,0,0,0,-0.062,-0.0669,-0.0742,-0.0819,-0.0888,-0.0917,-0.0922,-0.0901,-0.0818,-0.0709,-0.0632,-0.0449,-0.0178,-0.0041,0.0083,0.015,0.0329,0.0296,0.0355,0.0519,0.0519,0.0443,0,0,0,0,0,0,-0.0634,-0.0705,-0.0743,-0.0842,-0.0898,-0.096,-0.0963,-0.0908,-0.0833,-0.0722,-0.0575,-0.0442,-0.0188,-0.0256,0.0079,0.0125,0.0174,0.0439,0.0441,0.052,0.0519,0.0519,0.044,0,0,0,0,0]}]]